When you browse on this site, cookies collect data to enhance your experience and personalize the content and advertising you see.
Visit our Privacy Policy to learn more. By continuing to use the site, you agree to this use of cookies and data.
  • In Hungary
  • List of Countries
  • For 7 days
  • Water Temperature
  • Satellite Maps
  • Weather Map
  • News
  • Weather Widgets
  • user-avatar
    Login

    Hourly Weather Postiine

    Today, 22 July, Monday

    Time Temperature Precipitation Wind Pressure Humidity
    00:00 +20°C° 0.2 mm 3 mps 745 mmHg 90%
    01:00 +19°C° 0.2 mm 4 mps 745 mmHg 92%
    02:00 +19°C° 0 mm 4 mps 746 mmHg 94%
    03:00 +19°C° 0.4 mm 4 mps 745 mmHg 95%
    04:00 +18°C° 0.4 mm 4 mps 745 mmHg 95%
    05:00 +18°C° 0.4 mm 4 mps 745 mmHg 95%
    06:00 +18°C° 0.2 mm 4 mps 746 mmHg 94%
    07:00 +19°C° 0.2 mm 3 mps 746 mmHg 93%
    08:00 +20°C° 0 mm 3 mps 746 mmHg 92%
    09:00 +21°C° 0.5 mm 3 mps 746 mmHg 88%
    10:00 +22°C° 0.5 mm 4 mps 746 mmHg 84%
    11:00 +22°C° 0.5 mm 5 mps 746 mmHg 80%
    12:00 +23°C° 0.3 mm 5 mps 746 mmHg 74%
    13:00 +25°C° 0.3 mm 5 mps 746 mmHg 69%
    14:00 +26°C° 0.3 mm 6 mps 746 mmHg 64%
    15:00 +25°C° 0.1 mm 5 mps 746 mmHg 63%
    16:00 +25°C° 0.1 mm 5 mps 746 mmHg 62%
    17:00 +25°C° 0.1 mm 5 mps 746 mmHg 62%
    18:00 +23°C° 0 mm 4 mps 746 mmHg 67%
    19:00 +21°C° 0 mm 3 mps 746 mmHg 71%
    20:00 +20°C° 0 mm 3 mps 746 mmHg 76%
    21:00 +19°C° 0 mm 3 mps 746 mmHg 77%
    22:00 +19°C° 0 mm 3 mps 746 mmHg 77%
    23:00 +18°C° 0 mm 3 mps 746 mmHg 78%

    Tomorrow, 23 July, Tuesday

    Time Temperature Precipitation Wind Pressure Humidity
    00:00 +18°C° 0 mm 3 mps 746 mmHg 80%
    01:00 +17°C° 0 mm 3 mps 746 mmHg 82%
    02:00 +17°C° 0 mm 3 mps 745 mmHg 84%
    03:00 +16°C° 0 mm 3 mps 745 mmHg 86%
    04:00 +15°C° 0 mm 2 mps 745 mmHg 88%
    05:00 +14°C° 0 mm 2 mps 745 mmHg 90%
    06:00 +14°C° 0 mm 3 mps 745 mmHg 85%
    07:00 +16°C° 0 mm 3 mps 745 mmHg 80%
    08:00 +17°C° 0 mm 3 mps 745 mmHg 74%
    09:00 +19°C° 0 mm 4 mps 745 mmHg 70%
    10:00 +20°C° 0 mm 4 mps 745 mmHg 65%
    11:00 +21°C° 0 mm 5 mps 745 mmHg 60%
    12:00 +22°C° 0 mm 5 mps 745 mmHg 59%
    13:00 +22°C° 0 mm 5 mps 744 mmHg 58%
    14:00 +23°C° 0 mm 5 mps 744 mmHg 56%
    15:00 +23°C° 0 mm 5 mps 744 mmHg 58%
    16:00 +22°C° 0 mm 5 mps 744 mmHg 60%
    17:00 +22°C° 0 mm 5 mps 744 mmHg 61%
    18:00 +21°C° 0.1 mm 4 mps 744 mmHg 68%
    19:00 +19°C° 0.1 mm 3 mps 744 mmHg 75%
    20:00 +18°C° 0.1 mm 2 mps 744 mmHg 82%
    21:00 +17°C° 0 mm 3 mps 744 mmHg 84%
    22:00 +17°C° 0 mm 3 mps 744 mmHg 86%
    23:00 +16°C° 0 mm 3 mps 744 mmHg 88%

    Day after tomorrow, 24 July, Wednesday

    Time Temperature Precipitation Wind Pressure Humidity
    00:00 +16°C° 0 mm 3 mps 744 mmHg 90%
    01:00 +14°C° 0 mm 4 mps 744 mmHg 92%
    02:00 +14°C° 0 mm 4 mps 744 mmHg 94%
    03:00 +14°C° 0 mm 4 mps 744 mmHg 95%
    04:00 +14°C° 0 mm 4 mps 744 mmHg 96%
    05:00 +14°C° 0 mm 4 mps 744 mmHg 96%
    06:00 +15°C° 0 mm 4 mps 744 mmHg 93%
    07:00 +16°C° 0 mm 5 mps 744 mmHg 89%
    08:00 +19°C° 0 mm 5 mps 744 mmHg 85%
    09:00 +20°C° 0.1 mm 5 mps 744 mmHg 78%
    10:00 +22°C° 0.1 mm 5 mps 744 mmHg 71%
    11:00 +23°C° 0.1 mm 5 mps 744 mmHg 65%
    12:00 +25°C° 0 mm 5 mps 744 mmHg 61%
    13:00 +26°C° 0 mm 5 mps 744 mmHg 58%
    14:00 +26°C° 0 mm 5 mps 744 mmHg 54%
    15:00 +26°C° 0 mm 5 mps 744 mmHg 56%
    16:00 +26°C° 0 mm 5 mps 744 mmHg 58%
    17:00 +26°C° 0 mm 5 mps 744 mmHg 59%
    18:00 +23°C° 0 mm 4 mps 744 mmHg 66%
    19:00 +21°C° 0 mm 4 mps 744 mmHg 72%
    20:00 +19°C° 0 mm 3 mps 744 mmHg 78%
    21:00 +19°C° 0 mm 3 mps 744 mmHg 81%
    22:00 +18°C° 0 mm 3 mps 744 mmHg 84%
    23:00 +17°C° 0 mm 2 mps 745 mmHg 86%

    25 July, Thursday

    Time Temperature Precipitation Wind Pressure Humidity
    00:00 +17°C° 0 mm 3 mps 745 mmHg 88%
    01:00 +16°C° 0 mm 3 mps 745 mmHg 91%
    02:00 +16°C° 0 mm 3 mps 745 mmHg 93%
    03:00 +16°C° 0 mm 3 mps 745 mmHg 93%
    04:00 +14°C° 0 mm 3 mps 745 mmHg 94%
    05:00 +14°C° 0 mm 3 mps 745 mmHg 94%
    06:00 +17°C° 0 mm 3 mps 745 mmHg 87%
    07:00 +18°C° 0 mm 4 mps 746 mmHg 81%
    08:00 +20°C° 0 mm 4 mps 746 mmHg 74%
    09:00 +21°C° 0 mm 4 mps 746 mmHg 68%
    10:00 +22°C° 0 mm 4 mps 746 mmHg 61%
    11:00 +25°C° 0 mm 4 mps 746 mmHg 55%
    12:00 +25°C° 0 mm 5 mps 746 mmHg 53%
    13:00 +26°C° 0 mm 5 mps 746 mmHg 52%
    14:00 +26°C° 0 mm 5 mps 746 mmHg 51%
    15:00 +26°C° 0 mm 4 mps 745 mmHg 52%
    16:00 +26°C° 0 mm 4 mps 745 mmHg 54%
    17:00 +26°C° 0 mm 4 mps 745 mmHg 56%
    18:00 +23°C° 0.1 mm 4 mps 745 mmHg 64%
    19:00 +21°C° 0.1 mm 4 mps 745 mmHg 72%
    20:00 +19°C° 0.1 mm 3 mps 745 mmHg 80%
    21:00 +19°C° 0 mm 3 mps 745 mmHg 83%
    22:00 +18°C° 0 mm 4 mps 745 mmHg 86%
    23:00 +17°C° 0 mm 4 mps 745 mmHg 89%

    26 July, Friday

    Time Temperature Precipitation Wind Pressure Humidity
    00:00 +17°C° 0 mm 4 mps 745 mmHg 91%
    01:00 +16°C° 0 mm 3 mps 745 mmHg 93%
    02:00 +16°C° 0 mm 3 mps 744 mmHg 95%
    03:00 +16°C° 0 mm 3 mps 744 mmHg 95%
    04:00 +16°C° 0 mm 3 mps 744 mmHg 95%
    05:00 +14°C° 0 mm 3 mps 744 mmHg 95%
    06:00 +17°C° 0 mm 4 mps 744 mmHg 90%
    07:00 +18°C° 0 mm 4 mps 744 mmHg 85%
    08:00 +20°C° 0 mm 5 mps 744 mmHg 79%
    09:00 +21°C° 0 mm 5 mps 744 mmHg 76%
    10:00 +22°C° 0 mm 5 mps 744 mmHg 72%
    11:00 +23°C° 0 mm 4 mps 744 mmHg 69%
    12:00 +23°C° 0.5 mm 5 mps 744 mmHg 71%
    13:00 +23°C° 0.5 mm 5 mps 744 mmHg 73%
    14:00 +23°C° 0.5 mm 5 mps 743 mmHg 75%
    15:00 +23°C° 0.2 mm 5 mps 743 mmHg 74%
    16:00 +23°C° 0.2 mm 5 mps 743 mmHg 72%
    17:00 +23°C° 0.2 mm 5 mps 743 mmHg 71%
    18:00 +22°C° 0.2 mm 4 mps 743 mmHg 77%
    19:00 +21°C° 0.2 mm 4 mps 743 mmHg 83%
    20:00 +20°C° 0.2 mm 3 mps 743 mmHg 89%
    21:00 +19°C° 0 mm 3 mps 743 mmHg 91%
    22:00 +19°C° 0 mm 3 mps 742 mmHg 93%
    23:00 +18°C° 0 mm 3 mps 742 mmHg 95%

    27 July, Saturday

    Time Temperature Precipitation Wind Pressure Humidity
    00:00 +18°C° 0 mm 3 mps 742 mmHg 95%
    01:00 +18°C° 0 mm 3 mps 742 mmHg 96%
    02:00 +17°C° 0 mm 3 mps 742 mmHg 97%
    03:00 +17°C° 0 mm 3 mps 742 mmHg 97%
    04:00 +17°C° 0 mm 3 mps 742 mmHg 97%
    05:00 +17°C° 0 mm 3 mps 742 mmHg 97%
    06:00 +18°C° 0 mm 3 mps 742 mmHg 93%
    07:00 +19°C° 0 mm 3 mps 743 mmHg 90%
    08:00 +20°C° 0 mm 3 mps 743 mmHg 86%
    09:00 +22°C° 0 mm 3 mps 743 mmHg 79%
    10:00 +25°C° 0 mm 4 mps 743 mmHg 72%
    11:00 +26°C° 0 mm 4 mps 743 mmHg 65%
    12:00 +27°C° 0 mm 4 mps 743 mmHg 63%
    13:00 +27°C° 0 mm 4 mps 743 mmHg 60%
    14:00 +28°C° 0 mm 4 mps 742 mmHg 58%
    15:00 +28°C° 0.1 mm 4 mps 742 mmHg 60%
    16:00 +28°C° 0.1 mm 4 mps 742 mmHg 61%
    17:00 +28°C° 0.1 mm 5 mps 742 mmHg 63%
    18:00 +26°C° 0.2 mm 4 mps 742 mmHg 69%
    19:00 +24°C° 0.2 mm 3 mps 742 mmHg 76%
    20:00 +22°C° 0.2 mm 3 mps 742 mmHg 82%
    21:00 +21°C° 0 mm 3 mps 742 mmHg 85%
    22:00 +20°C° 0 mm 2 mps 743 mmHg 89%
    23:00 +20°C° 0 mm 2 mps 743 mmHg 92%
    Show more